Volver al catálogo

CZ-6A DEB

ActivoPO
NORAD 60710·DEBRIS·🇨🇳 China

Lanzado Aug 6, 2024 desde Taiyuan Satellite Launch Center

Loading…

Próximos Pases (próximas 24 horas)

TLE

ActualizadoSource: Space-Track

Época: Sep 14, 2026, 12:34 UTC

1 60710U 24140DP  26257.52374323  .00000228  00000-0  10038-3 0  9993
2 60710  89.2009 283.1044 0041607 244.8818 114.8053 14.19888497108313

Sigue CZ-6A DEB en tiempo real con AllMySat

Download on the App Store